EW7961 Weather Reports


Display with metric or nautical units.
time (UTC)temp
F
wind
direction
speed
MPH
gust
MPH
rain 1hr
in
rain 24hr
in
rain mn
in
humidity
%
barometer
mb
20260505024018 73 288 2.0 4.0 0.00 0.13 0.00 59 1004.5
20260505023018 73 272 2.0 4.0 0.00 0.13 0.00 58 1004.4
20260505022019 73 267 2.0 3.0 0.00 0.13 0.00 57 1004.2
20260505021019 73 277 2.0 2.0 0.00 0.13 0.00 57 1004.0
20260505020019 73 277 2.0 3.0 0.00 0.13 0.00 56 1003.9
20260505015059 73 275 2.0 3.0 0.00 0.13 0.00 56 1003.7
20260505014019 74 270 2.0 4.0 0.00 0.13 0.00 55 1003.6
20260505013019 74 275 2.0 4.0 0.00 0.13 0.00 55 1003.5
20260505012020 74 274 2.0 4.0 0.00 0.13 0.00 55 1003.5
20260505011017 75 274 2.0 4.0 0.00 0.13 0.00 55 1003.4
20260505010019 75 275 2.0 3.0 0.00 0.13 0.00 55 1003.2
20260505005019 76 274 2.0 3.0 0.00 0.13 0.00 55 1003.1
20260505004100 76 275 1.0 3.0 0.00 0.13 0.00 53 1002.9
20260505003017 77 254 2.0 5.0 0.00 0.13 0.00 53 1002.8
20260505002017 78 274 2.0 3.0 0.00 0.13 0.00 52 1002.8
20260505001020 79 262 2.0 5.0 0.00 0.13 0.00 50 1002.7
20260505000020 79 274 2.0 4.0 0.00 0.13 0.00 51 1002.7
20260504235017 79 271 3.0 6.0 0.00 0.13 0.00 50 1002.6
20260504234017 79 270 2.0 7.0 0.00 0.13 0.00 51 1002.7
20260504233017 78 271 2.0 4.0 0.00 0.13 0.00 52 1002.8
20260504232021 78 270 2.0 4.0 0.00 0.13 0.00 54 1002.9
20260504231018 79 267 2.0 5.0 0.00 0.13 0.00 59 1003.1
20260504225018 79 274 2.0 3.0 0.00 0.13 0.13 58 1003.5
20260504224018 79 273 2.0 3.0 0.00 0.13 0.13 57 1003.6
20260504223018 80 279 2.0 3.0 0.00 0.13 0.13 57 1003.7
20260504222021 80 271 2.0 4.0 0.00 0.13 0.13 54 1003.7
20260504221018 82 273 2.0 4.0 0.00 0.13 0.13 54 1003.6
20260504220019 82 260 1.0 3.0 0.00 0.13 0.13 52 1003.7
20260504215058 81 273 1.0 4.0 0.00 0.13 0.13 53 1003.8
20260504214019 80 268 2.0 4.0 0.00 0.13 0.13 57 1003.8
20260504213019 78 269 1.0 4.0 0.00 0.13 0.13 57 1003.8
20260504212019 77 273 2.0 4.0 0.00 0.13 0.13 58 1004.0
20260504211019 76 276 2.0 5.0 0.00 0.13 0.13 60 1004.3
20260504210019 76 265 1.0 4.0 0.00 0.13 0.13 61 1004.4
20260504205059 74 282 1.0 4.0 0.00 0.13 0.13 64 1004.5
20260504204031 72 284 1.0 3.0 0.00 0.13 0.13 67 1004.5
20260504203057 71 227 1.0 3.0 0.00 0.13 0.13 69 1004.8
20260504202057 70 240 1.0 3.0 0.00 0.13 0.13 72 1005.0
20260504201016 69 188 1.0 2.0 0.00 0.13 0.13 74 1004.9
20260504200017 68 243 1.0 2.0 0.01 0.13 0.13 75 1005.0
20260504195032 67 49 1.0 2.0 0.02 0.13 0.13 78 1005.3
20260504194032 64 112 1.0 3.0 0.02 0.13 0.13 86 1005.5
20260504193032 63 26 1.0 2.0 0.11 0.13 0.13 88 1005.1
20260504192017 63 72 1.0 2.0 0.12 0.13 0.13 90 1005.4
20260504191017 63 292 2.0 2.0 0.12 0.13 0.13 89 1006.5
20260504190018 63 267 2.0 3.0 0.11 0.12 0.12 88 1006.7
20260504185018 63 359 2.0 3.0 0.10 0.10 0.10 86 1006.3
20260504184018 65 39 2.0 3.0 0.10 0.10 0.10 84 1006.2
20260504183017 65 294 0.0 1.0 0.02 0.02 0.02 78 1007.0
20260504181018 65 296 1.0 2.0 0.00 0.00 0.00 76 1007.1
20260504180019 66 320 1.0 2.0 0.00 0.00 0.00 76 1006.9
20260504175018 66 310 1.0 2.0 0.00 0.00 0.00 73 1006.7
20260504174019 66 337 0.0 1.0 0.00 0.00 0.00 73 1006.6
20260504173018 67 313 0.0 1.0 0.00 0.00 0.00 71 1006.8
20260504172019 67 289 1.0 4.0 0.00 0.00 0.00 69 1006.6
20260504171019 67 292 0.0 2.0 0.00 0.00 0.00 68 1006.5
20260504151018 70 274 1.0 3.0 0.00 0.00 0.00 56 1008.3
20260504141018 69 275 2.0 4.0 0.00 0.00 0.00 60 1008.1
20260504081023 65 290 1.0 2.0 0.00 0.00 0.00 63 1008.9
20260504050019 67 320 1.0 2.0 0.00 0.00 0.00 55 1008.5
20260504045057 67 291 1.0 3.0 0.00 0.00 0.00 55 1008.5
20260504044026 67 301 1.0 2.0 0.00 0.00 0.00 54 1008.7
20260504043023 68 298 1.0 3.0 0.00 0.00 0.00 53 1009.1
20260504042025 68 284 1.0 5.0 0.00 0.00 0.00 53 1009.4
20260504041017 68 274 1.0 5.0 0.00 0.00 0.00 54 1009.0
20260504040017 68 279 1.0 2.0 0.00 0.00 0.00 53 1009.9
20260504035017 67 285 1.0 5.0 0.00 0.00 0.00 53 1009.9
20260504034020 67 302 0.0 2.0 0.00 0.00 0.00 52 1010.1
20260504033100 68 289 0.0 2.0 0.00 0.00 0.00 52 1010.1
20260504032100 68 293 0.0 1.0 0.00 0.00 0.00 51 1010.2
20260504031018 69 273 1.0 3.0 0.00 0.00 0.00 50 1010.0
20260504030018 69 276 2.0 4.0 0.00 0.00 0.00 49 1009.9
20260504025021 69 275 1.0 2.0 0.00 0.00 0.00 49 1009.8